sat.trackr.live / text

‹ back to catalog

STARLINK-34970

NORAD 65450 · 2025-194S

PAYLOAD ACTIVE UNKNOWN

§ Identity

Operator
Country
US
Launch date
2025-09-03
Launch site
AFWTR
Launch vehicle
Mass (kg)
RCS (m²)

Purposes: comms

External: N2YO · Heavens-Above · Gunter

§ Orbital elements

Epoch: 2026-09-20T19:46:59.579616Z

Period
93.91 min
Inclination
97.2834°
Eccentricity
0.0001987
Mean motion
15.33445326 rev/d
Perigee alt
464.2 km
Apogee alt
466.9 km
Semi-major
6,843.7 km
B*
3.4524e-4
RAAN
113.4051°
Arg perigee
90.3370°
Mean anomaly
269.8101°
Rev number
5,911

§ Raw data

STARLINK-349701 65450U 25194S   26263.82430069  .00011088  00000+0  34524-3 0  99902 65450  97.2834 113.4051 0001987  90.3370 269.8101 15.33445326 59116

JSON: /api/v1/satellites/65450 · /tle

For live sub-satellite position, see the globe view (requires WebGL).

§ Visibility from observer

Set your observer location to see the next 7 days of passes ≥ 10°. The values pass through the URL so the page stays shareable.

No JS? Fill the form by hand. The geolocation button needs JavaScript.